Regional Weather Roundup
Issued by NWS Huntsville, AL

Home | Current Version | Previous Version | Text Only | Print | Product List | Glossary On
Versions: 1 2 3 4 5 6 7 8 9 10 11 12 13 14 15 16 17 18 19 20 21 22 23 24 25 26 27 28 29 30 31 32 33 34 35 36 37 38 39 40 41 42 43 44 45 46 47 48 49 50
000
ASUS44 KHUN 220110
RWRHUN

WEATHER ROUNDUP FOR THE TENNESSEE VALLEY
NATIONAL WEATHER SERVICE HUNTSVILLE AL
800 PM CDT SUN SEP 21 2014

ALZ001>004-220200-
NORTHWEST ALABAMA

CITY           SKY/WX    TMP DP  RH WIND       PRES   REMARKS
SHOALS AIRPORT PTCLDY    78  68  71 NW3       29.99R
SHOALS TVA RES   N/A     81 N/A N/A MISG        N/A
$$

ALZ005>007-016-220200-
NORTH CENTRAL ALABAMA

CITY           SKY/WX    TMP DP  RH WIND       PRES   REMARKS
DECATUR AP     PTCLDY    78  68  71 W5        29.98R
HUNTSVILLE AP  MOCLDY    79  67  66 W6        29.97R
HUN NWS/UAH      N/A     80  65  60 W7          N/A
MERIDIANVILLE  MOCLDY    75  63  64 NW3       29.98R
VINEMONT AP    FAIR      77  65  66 CALM      30.01R
$$

ALZ008>010-220200-
NORTHEAST ALABAMA

CITY           SKY/WX    TMP DP  RH WIND       PRES   REMARKS
ALBERTVILLE    CLOUDY    79  70  73 W5        29.98R
FORT PAYNE     MOCLDY    73  64  73 CALM      29.97R
SCOTTSBORO AP  CLOUDY    73  72  94 NW3       29.97R
SCOTTSBORO HCN   N/A     72 N/A N/A MISG        N/A
VALLEY HEAD      N/A     75 N/A N/A MISG        N/A
$$

TNZ076-096-097-220200-
SOUTHEASTERN MIDDLE TENNESSEE

CITY           SKY/WX    TMP DP  RH WIND       PRES   REMARKS
FAYETTEVILLE   PTCLDY    73  66  78 CALM      29.99R
TULLAHOMA      CLEAR     70  66  88 W5        30.00R
WINCHESTER     MOCLDY    70  70 100 CALM      29.99R
$$

...SURROUNDING SITES...

CITY           SKY/WX    TMP DP  RH WIND       PRES   REMARKS
ATLANTA        PTCLDY    79  61  53 W6        29.98R
ANNISTON       PTCLDY    75  65  70 CALM      29.97R
BIRMINGHAM     PTCLDY    83  63  50 W7        29.99R
CHATTANOOGA    CLOUDY    76  65  68 W3        29.96R
CORINTH        FAIR      75  70  83 CALM      29.98R
DALTON         RAIN      73  70  88 CALM      29.97R
GADSDEN        PTCLDY    75  63  64 CALM      29.97R
GOLDEN TRNGL   CLOUDY    82  64  54 CALM      29.97S
HALEYVILLE     LGT RAIN  73  71  93 NW5       30.03R
JACKSON TN     CLEAR     71  54  54 N7        30.02R
LEWISBURG      FAIR      73  65  76 CALM      29.98R
MEMPHIS        MOCLDY    81  61  50 N18G25    30.01R
MURFREESBORO   FAIR      76  52  43 N12       29.99R
NASHVILLE      PTCLDY    74  49  41 N10       30.01R
OXFORD MS      FAIR      77  72  83 N5        30.01R
ROME           MOCLDY    77  66  68 CALM      29.94R
SAVANNAH       CLEAR     73  70  88 N6        30.00R
TUPELO         LGT RAIN  78  71  79 NE10      29.98R
TUSCALOOSA     CLEAR     77  68  73 CALM      29.97R
$$

...GULF COAST WEATHER...

CITY           SKY/WX    TMP DP  RH WIND       PRES   REMARKS
GULFPORT       CLEAR     77  71  82 CALM      29.99R
PASCAGOULA     CLEAR     73  70  90 CALM      29.99R
MOBILE         PTCLDY    76  71  85 S9        30.01R
GULF SHORES    CLEAR     73  68  84 CALM      29.99S
PENSACOLA      CLEAR     75  67  76 CALM      29.99R
DESTIN         CLEAR     82  67  60 CALM      30.00R
PANAMA CITY    CLEAR     76  71  86 S3        30.01R
APPALACHICOLA  CLEAR     76  67  73 CALM      30.00R
$$



USA.gov is the U.S. government's official web portal to all federal, state and local government web resources and services.